UITMSAT-1 (43589 NORAD) Tracking and Keplerian Element Data

This shows tracking and keplerian element data for the satellite.

Feedback or suggestion? Click here.




ElementValue
Catalog43589
NameUITMSAT-1
Epoch Orbit3971
Epoch Day111.86456206
Epoch Year2019
RAAN274.0901
Inclination51.6364
Eccentricity0.0005415
Argument of Perigee293.6668
Mean Anonmoly66.3756
Mean Motion15.6028615
Decay Rate0.00013545
L11 43589U 98067PD 19111.86456206 .00013545 00000-0 16842-3 0 9991
L22 43589 51.6364 274.0901 0005415 293.6668 66.3756 15.60286150 39711

Live tracking and technical data element details for UITMSAT-1 (NORAD 43589). UITMSAT-1 can be tracked NOW for your location showing map with azimuth and elevation plus other details from your city location.

Track the satellite on the map from your city or location and see movement details for azimuth, elevation, latitude, longitude, range, height, and movement on the map or in text.







IsCatalogInMostPopularTable: catalog: 43589, numindb: 128
Update: records affected: 1



GetName: 43589 UITMSAT-1

Hit Count: updated at: Tue, 23 Apr 2019 19:49:52 GMT